{"data":{"norad_id":57023,"epoch":"2026-09-21T22:03:07.718976Z","epoch_age_seconds":77845,"freshness":"FRESH","line1":"1 57023U 23085V   26264.91883934  .00010846  00000+0  31125-3 0  9993","line2":"2 57023  97.5015  18.1354 0006509  89.1491 271.0499 15.36025185181536","mean_motion":15.36025185,"eccentricity":0.0006509,"inclination_deg":97.5015,"raan_deg":18.1354,"arg_perigee_deg":89.1491,"mean_anomaly_deg":271.0499,"bstar":0.00031125,"rev_number":18153,"period_min":93.748462854794,"perigee_km":453.42754579353,"apogee_km":462.32666895851,"semimajor_km":6836.014107376,"source":"CELESTRAK","updated_at":"2026-09-22T09:00:25.998246Z"}}